AFL1010 UIII-UNNT

Flight info

Callsign AFL1010
Flight time 2h 24m
Altitude 38000
Route BOGRA5C BOGRA A815 TUTEK M97 LIBZI R497 LONKA A822 LAPAK B151 KESED B926 NATIR NATIR1K
Aircraft A20N/M-SDE2E3FGHIRWXY/LB1

Departure

Time 2026-04-27 11:08
Airport Irkutsk International Airport (UIII)

Arrival

Time 2026-04-27 13:33
Airport Novosibirsk Tolmachevo Airport (UNNT)
Time Latitude Longitude Altitude Speed Heading
2026-04-27 10:53 52.27071 104.36968 1629 ft 0 kts 200°
2026-04-27 11:05 52.27061 104.36962 1633 ft 3 kts 200°
2026-04-27 11:05 52.27034 104.36973 1633 ft 5 kts 143°
2026-04-27 11:05 52.27014 104.37034 1629 ft 8 kts 114°
2026-04-27 11:05 52.26993 104.37133 1631 ft 11 kts 104°
2026-04-27 11:06 52.27016 104.37253 1630 ft 13 kts 54°
2026-04-27 11:06 52.27076 104.37388 1632 ft 17 kts 54°
2026-04-27 11:06 52.27098 104.37438 1629 ft 0 kts 54°
2026-04-27 11:07 52.27119 104.37490 1633 ft 11 kts 55°
2026-04-27 11:07 52.27163 104.37591 1631 ft 12 kts 55°
2026-04-27 11:07 52.27177 104.37732 1633 ft 13 kts 105°
2026-04-27 11:07 52.27107 104.38000 1637 ft 60 kts 113°
2026-04-27 11:08 52.26944 104.38610 1642 ft 115 kts 113°
2026-04-27 11:08 52.26378 104.40742 1949 ft 174 kts 115°
2026-04-27 11:08 52.25899 104.42527 2914 ft 172 kts 111°
2026-04-27 11:08 52.25411 104.44341 3823 ft 182 kts 111°
2026-04-27 11:09 52.24883 104.46350 4560 ft 203 kts 111°
2026-04-27 11:09 52.24572 104.48678 5186 ft 222 kts 82°
2026-04-27 11:09 52.25092 104.51094 5883 ft 240 kts 51°
2026-04-27 11:09 52.26389 104.52892 6620 ft 255 kts 23°
2026-04-27 11:10 52.27551 104.53447 7066 ft 260 kts
2026-04-27 11:10 52.29827 104.52555 8484 ft 256 kts 326°
2026-04-27 11:10 52.31142 104.50589 9575 ft 258 kts 314°
2026-04-27 11:10 52.31959 104.49171 10287 ft 259 kts 316°
2026-04-27 11:11 52.33852 104.46497 11049 ft 283 kts 325°
2026-04-27 11:11 52.35578 104.44696 11424 ft 305 kts 330°
2026-04-27 11:11 52.36832 104.43573 11870 ft 311 kts 332°
2026-04-27 11:11 52.38770 104.41958 12796 ft 314 kts 333°
2026-04-27 11:12 52.40741 104.40364 13718 ft 318 kts 334°
2026-04-27 11:12 52.42735 104.38755 14575 ft 321 kts 334°
2026-04-27 11:12 52.44745 104.37121 15391 ft 323 kts 334°
2026-04-27 11:12 52.46771 104.35464 16186 ft 326 kts 334°
2026-04-27 11:13 52.48812 104.33789 16993 ft 329 kts 335°
2026-04-27 11:13 52.50867 104.32097 17799 ft 332 kts 335°
2026-04-27 11:13 52.52946 104.30383 18542 ft 336 kts 335°
2026-04-27 11:13 52.55040 104.28656 19226 ft 338 kts 335°
2026-04-27 11:14 52.57152 104.26912 19850 ft 341 kts 335°
2026-04-27 11:14 52.59275 104.25156 20082 ft 342 kts 335°
2026-04-27 11:14 52.61399 104.23398 20140 ft 342 kts 335°
2026-04-27 11:14 52.63506 104.21652 20145 ft 343 kts 335°
2026-04-27 11:15 52.65640 104.19882 20153 ft 343 kts 335°
2026-04-27 11:15 52.67770 104.18113 20145 ft 343 kts 335°
2026-04-27 11:15 52.69902 104.16341 20148 ft 343 kts 335°
2026-04-27 11:15 52.72037 104.14565 20153 ft 344 kts 335°
2026-04-27 11:16 52.74175 104.12784 20146 ft 344 kts 335°
2026-04-27 11:16 52.76315 104.10999 20147 ft 344 kts 335°
2026-04-27 11:16 52.78455 104.09213 20136 ft 344 kts 335°
2026-04-27 11:16 52.80596 104.07424 20142 ft 345 kts 335°
2026-04-27 11:17 52.82740 104.05629 20142 ft 345 kts 335°
2026-04-27 11:17 52.84880 104.03836 20139 ft 345 kts 335°
2026-04-27 11:17 52.87022 104.02040 20133 ft 345 kts 335°
2026-04-27 11:17 52.89169 104.00237 20141 ft 346 kts 335°
2026-04-27 11:18 52.91317 103.98431 20137 ft 346 kts 335°
2026-04-27 11:18 52.93461 103.96627 20138 ft 346 kts 335°
2026-04-27 11:18 52.95607 103.94820 20129 ft 346 kts 335°
2026-04-27 11:18 52.97726 103.93032 20137 ft 347 kts 335°
2026-04-27 11:19 52.99873 103.91219 20136 ft 346 kts 335°
2026-04-27 11:19 53.02021 103.89403 20134 ft 347 kts 335°
2026-04-27 11:19 53.04169 103.87585 20130 ft 346 kts 335°
2026-04-27 11:19 53.06320 103.85762 20132 ft 348 kts 335°
2026-04-27 11:20 53.08475 103.83934 20132 ft 347 kts 335°
2026-04-27 11:20 53.10625 103.82108 20131 ft 347 kts 335°
2026-04-27 11:20 53.12778 103.80277 20126 ft 347 kts 335°
2026-04-27 11:20 53.14935 103.78443 20132 ft 348 kts 335°
2026-04-27 11:21 53.17103 103.76655 20130 ft 347 kts 336°
2026-04-27 11:21 53.19290 103.74956 20134 ft 347 kts 337°
2026-04-27 11:21 53.21490 103.73271 20122 ft 347 kts 337°
2026-04-27 11:21 53.23692 103.71577 20127 ft 349 kts 337°
2026-04-27 11:22 53.25889 103.69872 20125 ft 349 kts 337°
2026-04-27 11:22 53.28090 103.68153 20138 ft 350 kts 336°
2026-04-27 11:22 53.30313 103.66412 20602 ft 353 kts 336°
2026-04-27 11:22 53.32530 103.64671 21389 ft 352 kts 336°
2026-04-27 11:23 53.34758 103.62919 22062 ft 355 kts 336°
2026-04-27 11:23 53.37004 103.61151 22703 ft 359 kts 336°
2026-04-27 11:23 53.39273 103.59363 23347 ft 362 kts 336°
2026-04-27 11:23 53.41566 103.57554 23929 ft 365 kts 336°
2026-04-27 11:24 53.43840 103.55757 24464 ft 367 kts 336°
2026-04-27 11:24 53.46165 103.53913 25009 ft 370 kts 335°
2026-04-27 11:24 53.48341 103.51575 25502 ft 376 kts 323°
2026-04-27 11:24 53.50170 103.48364 25990 ft 386 kts 310°
2026-04-27 11:25 53.51520 103.44412 26472 ft 396 kts 297°
2026-04-27 11:25 53.52306 103.39915 26953 ft 406 kts 288°
2026-04-27 11:25 53.52925 103.35278 27418 ft 408 kts 288°
2026-04-27 11:25 53.53551 103.30607 27857 ft 411 kts 289°
2026-04-27 11:26 53.54183 103.25895 28291 ft 414 kts 289°
2026-04-27 11:26 53.54817 103.21166 28716 ft 416 kts 289°
2026-04-27 11:26 53.55453 103.16399 29122 ft 419 kts 289°
2026-04-27 11:26 53.56093 103.11598 29509 ft 421 kts 289°
2026-04-27 11:27 53.56734 103.06773 29912 ft 424 kts 289°
2026-04-27 11:27 53.57367 103.01987 30266 ft 426 kts 289°
2026-04-27 11:27 53.58010 102.97108 30612 ft 428 kts 289°
2026-04-27 11:27 53.58659 102.92180 30928 ft 431 kts 289°
2026-04-27 11:28 53.59304 102.87249 31320 ft 432 kts 289°
2026-04-27 11:28 53.59950 102.82298 31759 ft 431 kts 289°
2026-04-27 11:28 53.60590 102.77370 32210 ft 430 kts 289°
2026-04-27 11:28 53.61227 102.72451 32639 ft 429 kts 289°
2026-04-27 11:29 53.61853 102.67599 33072 ft 428 kts 289°
2026-04-27 11:29 53.62483 102.62707 33516 ft 427 kts 289°
2026-04-27 11:29 53.63111 102.57819 33945 ft 426 kts 289°
2026-04-27 11:29 53.63735 102.52943 34299 ft 425 kts 289°
2026-04-27 11:30 53.64359 102.48057 34594 ft 425 kts 288°
2026-04-27 11:30 53.64978 102.43184 34875 ft 426 kts 288°
2026-04-27 11:30 53.65597 102.38298 35151 ft 426 kts 288°
2026-04-27 11:30 53.66215 102.33401 35431 ft 426 kts 288°
2026-04-27 11:31 53.66831 102.28503 35704 ft 427 kts 288°
2026-04-27 11:31 53.67445 102.23607 35967 ft 427 kts 288°
2026-04-27 11:31 53.68056 102.18704 36220 ft 427 kts 287°
2026-04-27 11:31 53.68664 102.13803 36468 ft 427 kts 287°
2026-04-27 11:32 53.69272 102.08889 36704 ft 428 kts 287°
2026-04-27 11:32 53.69878 102.03977 36933 ft 428 kts 287°
2026-04-27 11:32 53.70475 101.99118 37161 ft 428 kts 287°
2026-04-27 11:32 53.71077 101.94196 37393 ft 429 kts 287°
2026-04-27 11:33 53.71678 101.89270 37620 ft 429 kts 287°
2026-04-27 11:33 53.72277 101.84334 37830 ft 429 kts 286°
2026-04-27 11:33 53.72876 101.79386 38027 ft 430 kts 286°
2026-04-27 11:33 53.73473 101.74439 38068 ft 429 kts 286°
2026-04-27 11:34 53.74654 101.64576 38065 ft 428 kts 286°
2026-04-27 11:34 53.75826 101.54720 38059 ft 428 kts 286°
2026-04-27 11:35 53.76999 101.44802 38060 ft 434 kts 286°
2026-04-27 11:35 53.78165 101.34849 38053 ft 433 kts 285°
2026-04-27 11:36 53.79319 101.24903 38049 ft 427 kts 285°
2026-04-27 11:36 53.80456 101.15048 38043 ft 427 kts 285°
2026-04-27 11:37 53.81587 101.05175 38039 ft 427 kts 285°
2026-04-27 11:37 53.82709 100.95313 38039 ft 427 kts 285°
2026-04-27 11:38 53.83821 100.85438 38032 ft 427 kts 285°
2026-04-27 11:38 53.84927 100.75560 38024 ft 426 kts 285°
2026-04-27 11:39 53.86025 100.65680 38019 ft 426 kts 285°
2026-04-27 11:39 53.87112 100.55816 38017 ft 426 kts 285°
2026-04-27 11:40 53.87652 100.50883 37909 ft 425 kts 284°
2026-04-27 11:40 53.88191 100.45961 38013 ft 425 kts 284°
2026-04-27 11:40 53.89259 100.36110 38014 ft 425 kts 284°
2026-04-27 11:41 53.90310 100.26327 38012 ft 424 kts 284°
2026-04-27 11:41 53.91362 100.16472 38008 ft 424 kts 284°
2026-04-27 11:42 53.92402 100.06642 38008 ft 424 kts 283°
2026-04-27 11:42 53.93437 99.96777 38005 ft 423 kts 283°
2026-04-27 11:43 53.94462 99.86928 38009 ft 423 kts 283°
2026-04-27 11:43 53.95478 99.77087 38004 ft 422 kts 283°
2026-04-27 11:44 53.96484 99.67251 38004 ft 423 kts 283°
2026-04-27 11:44 53.97471 99.57529 38006 ft 423 kts 283°
2026-04-27 11:45 53.98295 99.49347 38007 ft 422 kts 282°
2026-04-27 11:45 53.99438 99.37898 38006 ft 422 kts 282°
2026-04-27 11:46 54.00411 99.28057 38004 ft 422 kts 282°
2026-04-27 11:46 54.01376 99.18214 38002 ft 422 kts 282°
2026-04-27 11:47 54.02332 99.08374 37997 ft 422 kts 282°
2026-04-27 11:47 54.03281 98.98517 38001 ft 422 kts 282°
2026-04-27 11:48 54.04372 98.88720 37999 ft 420 kts 287°
2026-04-27 11:48 54.06376 98.79411 38000 ft 418 kts 297°
2026-04-27 11:49 54.09174 98.70737 37999 ft 417 kts 301°
2026-04-27 11:49 54.12051 98.62146 38004 ft 417 kts 301°
2026-04-27 11:50 54.14920 98.53538 38000 ft 417 kts 300°
2026-04-27 11:50 54.17763 98.44985 38001 ft 417 kts 300°
2026-04-27 11:51 54.20619 98.36363 38002 ft 417 kts 300°
2026-04-27 11:52 54.24895 98.23401 38006 ft 417 kts 300°
2026-04-27 11:52 54.27738 98.14743 38005 ft 417 kts 300°
2026-04-27 11:53 54.30571 98.06083 38008 ft 417 kts 299°
2026-04-27 11:53 54.33401 97.97404 38012 ft 417 kts 299°
2026-04-27 11:54 54.36231 97.88713 38012 ft 418 kts 299°
2026-04-27 11:54 54.39067 97.80014 38013 ft 418 kts 299°
2026-04-27 11:55 54.41896 97.71303 38020 ft 418 kts 299°
2026-04-27 11:55 54.44699 97.62633 38017 ft 418 kts 298°
2026-04-27 11:56 54.47517 97.53885 38019 ft 418 kts 298°
2026-04-27 11:56 54.50325 97.45137 38026 ft 418 kts 298°
2026-04-27 11:57 54.53129 97.36373 38024 ft 418 kts 298°
2026-04-27 11:57 54.55926 97.27593 38026 ft 418 kts 298°
2026-04-27 11:58 54.58246 97.20288 38029 ft 418 kts 298°
2026-04-27 11:58 54.61030 97.11495 38027 ft 418 kts 297°
2026-04-27 11:59 54.63810 97.02678 38033 ft 418 kts 297°
2026-04-27 11:59 54.67032 96.92422 38035 ft 417 kts 297°
2026-04-27 12:00 54.69347 96.85024 38039 ft 418 kts 297°
2026-04-27 12:00 54.72085 96.76245 38038 ft 418 kts 297°
2026-04-27 12:01 54.74529 96.67149 38040 ft 416 kts 289°
2026-04-27 12:01 54.76145 96.57544 38043 ft 415 kts 281°
2026-04-27 12:02 54.77316 96.47742 38041 ft 415 kts 281°
2026-04-27 12:02 54.78504 96.37938 38044 ft 415 kts 281°
2026-04-27 12:03 54.79669 96.28136 38048 ft 415 kts 281°
2026-04-27 12:03 54.80821 96.18336 38042 ft 415 kts 281°
2026-04-27 12:04 54.81955 96.08603 38050 ft 414 kts 281°
2026-04-27 12:04 54.83088 95.98811 38060 ft 414 kts 280°
2026-04-27 12:05 54.84213 95.89013 38047 ft 414 kts 280°
2026-04-27 12:05 54.85329 95.79221 38052 ft 414 kts 280°
2026-04-27 12:06 54.86437 95.69428 38054 ft 413 kts 280°
2026-04-27 12:06 54.87535 95.59646 38051 ft 413 kts 279°
2026-04-27 12:07 54.88624 95.49869 38055 ft 412 kts 279°
2026-04-27 12:07 54.89705 95.40091 38056 ft 412 kts 279°
2026-04-27 12:08 54.90777 95.30312 38056 ft 412 kts 279°
2026-04-27 12:08 54.91841 95.20532 38052 ft 412 kts 279°
2026-04-27 12:09 54.92897 95.10750 38056 ft 411 kts 279°
2026-04-27 12:09 54.93943 95.00980 38051 ft 411 kts 279°
2026-04-27 12:10 54.94975 94.91266 38054 ft 411 kts 278°
2026-04-27 12:10 54.96006 94.81483 38058 ft 410 kts 278°
2026-04-27 12:11 54.97028 94.71711 38057 ft 410 kts 278°
2026-04-27 12:11 54.98040 94.61945 38062 ft 409 kts 278°
2026-04-27 12:12 54.99042 94.52190 38061 ft 409 kts 278°
2026-04-27 12:12 55.00036 94.42436 38068 ft 409 kts 277°
2026-04-27 12:13 55.01022 94.32695 38062 ft 409 kts 277°
2026-04-27 12:13 55.02002 94.22924 38065 ft 408 kts 277°
2026-04-27 12:14 55.02972 94.13155 38068 ft 410 kts 277°
2026-04-27 12:14 55.03937 94.03359 38068 ft 410 kts 277°
2026-04-27 12:15 55.04892 93.93595 38073 ft 411 kts 277°
2026-04-27 12:15 55.05846 93.83745 38084 ft 412 kts 277°
2026-04-27 12:16 55.06795 93.73861 38081 ft 413 kts 277°
2026-04-27 12:16 55.06993 93.71788 38077 ft 413 kts 277°
2026-04-27 12:17 55.07275 93.68825 38078 ft 413 kts 277°
2026-04-27 12:17 55.08216 93.58905 38084 ft 414 kts 277°
2026-04-27 12:18 55.09151 93.48989 38083 ft 414 kts 276°
2026-04-27 12:18 55.10071 93.39058 38087 ft 414 kts 276°
2026-04-27 12:19 55.10984 93.29141 38090 ft 413 kts 276°
2026-04-27 12:19 55.11890 93.19216 38094 ft 414 kts 276°
2026-04-27 12:20 55.12782 93.09346 38095 ft 413 kts 276°
2026-04-27 12:20 55.13672 92.99419 38101 ft 414 kts 276°
2026-04-27 12:21 55.14554 92.89487 38096 ft 413 kts 276°
2026-04-27 12:21 55.15426 92.79574 38104 ft 412 kts 276°
2026-04-27 12:22 55.16288 92.69660 38109 ft 412 kts 276°
2026-04-27 12:22 55.17143 92.59749 38114 ft 412 kts 276°
2026-04-27 12:23 55.17990 92.49839 38116 ft 411 kts 276°
2026-04-27 12:23 55.18824 92.39945 38123 ft 411 kts 276°
2026-04-27 12:24 55.19658 92.30031 38128 ft 412 kts 276°
2026-04-27 12:24 55.20486 92.20146 38127 ft 412 kts 275°
2026-04-27 12:25 55.21307 92.10201 38131 ft 413 kts 275°
2026-04-27 12:25 55.22119 92.00246 38136 ft 413 kts 275°
2026-04-27 12:26 55.22924 91.90277 38136 ft 413 kts 275°
2026-04-27 12:26 55.23722 91.80290 38134 ft 414 kts 275°
2026-04-27 12:27 55.24512 91.70294 38137 ft 414 kts 275°
2026-04-27 12:27 55.25294 91.60290 38139 ft 414 kts 275°
2026-04-27 12:28 55.26068 91.50277 38132 ft 414 kts 275°
2026-04-27 12:28 55.26834 91.40259 38126 ft 415 kts 275°
2026-04-27 12:29 55.27588 91.30294 38135 ft 415 kts 275°
2026-04-27 12:29 55.28339 91.20250 38141 ft 415 kts 275°
2026-04-27 12:30 55.29082 91.10210 38144 ft 414 kts 275°
2026-04-27 12:30 55.29816 91.00182 38132 ft 414 kts 275°
2026-04-27 12:31 55.30540 90.90163 38134 ft 413 kts 275°
2026-04-27 12:31 55.31254 90.80164 38137 ft 413 kts 275°
2026-04-27 12:32 55.31956 90.70219 38140 ft 412 kts 274°
2026-04-27 12:32 55.32652 90.60237 38143 ft 411 kts 274°
2026-04-27 12:33 55.33340 90.50248 38142 ft 411 kts 274°
2026-04-27 12:33 55.34019 90.40268 38140 ft 411 kts 274°
2026-04-27 12:34 55.34691 90.30275 38145 ft 411 kts 274°
2026-04-27 12:34 55.35353 90.20308 38144 ft 410 kts 274°
2026-04-27 12:35 55.36003 90.10397 38145 ft 410 kts 274°
2026-04-27 12:35 55.36649 90.00420 38141 ft 410 kts 274°
2026-04-27 12:36 55.37287 89.90440 38143 ft 411 kts 273°
2026-04-27 12:36 55.37916 89.80457 38141 ft 411 kts 273°
2026-04-27 12:37 55.38535 89.70505 38141 ft 411 kts 273°
2026-04-27 12:37 55.39150 89.60486 38145 ft 412 kts 273°
2026-04-27 12:38 55.39758 89.50448 38142 ft 412 kts 273°
2026-04-27 12:38 55.40358 89.40410 38142 ft 413 kts 273°
2026-04-27 12:39 55.40950 89.30357 38149 ft 413 kts 273°
2026-04-27 12:39 55.41529 89.20374 38148 ft 413 kts 272°
2026-04-27 12:40 55.42105 89.10308 38150 ft 413 kts 272°
2026-04-27 12:40 55.42675 89.00229 38153 ft 413 kts 272°
2026-04-27 12:41 55.43042 88.90152 38151 ft 411 kts 267°
2026-04-27 12:41 55.42737 88.80123 38151 ft 409 kts 262°
2026-04-27 12:42 55.42258 88.70123 38152 ft 410 kts 263°
2026-04-27 12:42 55.41782 88.60098 38153 ft 410 kts 263°
2026-04-27 12:43 55.41291 88.50090 38157 ft 411 kts 263°
2026-04-27 12:43 55.40791 88.40127 38155 ft 411 kts 263°
2026-04-27 12:44 55.40279 88.30100 38157 ft 411 kts 262°
2026-04-27 12:44 55.39758 88.20055 38157 ft 412 kts 262°
2026-04-27 12:45 55.39230 88.10015 38160 ft 412 kts 262°
2026-04-27 12:45 55.38785 88.01688 38160 ft 412 kts 262°
2026-04-27 12:46 55.38241 87.91659 38161 ft 412 kts 262°
2026-04-27 12:46 55.37598 87.79999 38166 ft 412 kts 262°
2026-04-27 12:47 55.37132 87.71658 38165 ft 412 kts 262°
2026-04-27 12:47 55.36563 87.61636 38168 ft 412 kts 262°
2026-04-27 12:48 55.35988 87.51611 38168 ft 412 kts 262°
2026-04-27 12:48 55.35406 87.41577 38165 ft 413 kts 262°
2026-04-27 12:49 55.34817 87.31539 38168 ft 413 kts 262°
2026-04-27 12:49 55.34223 87.21567 38162 ft 413 kts 262°
2026-04-27 12:50 55.33616 87.11528 38165 ft 413 kts 262°
2026-04-27 12:50 55.33001 87.01494 38163 ft 413 kts 262°
2026-04-27 12:51 55.32377 86.91444 38167 ft 413 kts 262°
2026-04-27 12:51 55.31744 86.81400 38161 ft 414 kts 262°
2026-04-27 12:52 55.31103 86.71357 38161 ft 414 kts 262°
2026-04-27 12:52 55.30454 86.61323 38163 ft 414 kts 262°
2026-04-27 12:53 55.29468 86.46320 38159 ft 414 kts 261°
2026-04-27 12:53 55.28798 86.36278 38161 ft 414 kts 261°
2026-04-27 12:54 55.28120 86.26246 38158 ft 414 kts 261°
2026-04-27 12:54 55.27433 86.16203 38156 ft 414 kts 261°
2026-04-27 12:55 55.26777 86.06155 38161 ft 415 kts 263°
2026-04-27 12:55 55.26328 85.96125 38155 ft 415 kts 264°
2026-04-27 12:56 55.25871 85.86023 38159 ft 415 kts 263°
2026-04-27 12:56 55.25381 85.75933 38160 ft 415 kts 263°
2026-04-27 12:57 55.24876 85.65846 38160 ft 415 kts 263°
2026-04-27 12:57 55.24362 85.55746 38165 ft 415 kts 263°
2026-04-27 12:58 55.23844 85.45727 38171 ft 415 kts 263°
2026-04-27 12:58 55.23315 85.35656 38179 ft 415 kts 263°
2026-04-27 12:59 55.22778 85.25591 38159 ft 414 kts 263°
2026-04-27 12:59 55.22508 85.20587 37937 ft 411 kts 263°
2026-04-27 12:59 55.22239 85.15620 37458 ft 409 kts 262°
2026-04-27 13:00 55.21967 85.10662 36749 ft 410 kts 262°
2026-04-27 13:00 55.21691 85.05651 35828 ft 415 kts 262°
2026-04-27 13:00 55.21409 85.00595 34941 ft 418 kts 261°
2026-04-27 13:00 55.21128 84.95556 34197 ft 415 kts 261°
2026-04-27 13:01 55.20849 84.90569 33186 ft 408 kts 261°
2026-04-27 13:01 55.20573 84.85660 32156 ft 403 kts 260°
2026-04-27 13:01 55.20297 84.80804 31157 ft 398 kts 260°
2026-04-27 13:01 55.20023 84.76011 30183 ft 393 kts 259°
2026-04-27 13:02 55.19697 84.71305 28969 ft 387 kts 256°
2026-04-27 13:02 55.19153 84.66777 27581 ft 385 kts 252°
2026-04-27 13:02 55.18377 84.62211 26021 ft 389 kts 250°
2026-04-27 13:02 55.17591 84.57723 24575 ft 392 kts 251°
2026-04-27 13:03 55.16795 84.53140 23052 ft 394 kts 251°
2026-04-27 13:03 55.15999 84.48550 21451 ft 395 kts 252°
2026-04-27 13:03 55.15201 84.43950 19912 ft 395 kts 252°
2026-04-27 13:03 55.14401 84.39355 18486 ft 395 kts 252°
2026-04-27 13:04 55.13608 84.34813 17328 ft 385 kts 253°
2026-04-27 13:04 55.12833 84.30385 15988 ft 379 kts 253°
2026-04-27 13:04 55.12060 84.25977 14525 ft 379 kts 253°
2026-04-27 13:04 55.11284 84.21567 12978 ft 380 kts 253°
2026-04-27 13:05 55.10508 84.17158 11460 ft 379 kts 253°
2026-04-27 13:05 55.09733 84.12769 10037 ft 378 kts 254°
2026-04-27 13:05 55.08962 84.08405 8703 ft 373 kts 253°
2026-04-27 13:05 55.08233 84.04155 7907 ft 357 kts 257°
2026-04-27 13:06 55.07811 84.00027 7504 ft 333 kts 264°
2026-04-27 13:06 55.07588 83.96160 7297 ft 308 kts 264°
2026-04-27 13:06 55.07373 83.92590 7192 ft 282 kts 264°
2026-04-27 13:06 55.07171 83.89340 7189 ft 257 kts 264°
2026-04-27 13:07 55.06993 83.86480 7190 ft 234 kts 264°
2026-04-27 13:07 55.06817 83.83643 7198 ft 231 kts 264°
2026-04-27 13:07 55.06644 83.80859 7194 ft 229 kts 264°
2026-04-27 13:07 55.06475 83.78132 7195 ft 229 kts 264°
2026-04-27 13:08 55.06303 83.75367 7197 ft 229 kts 264°
2026-04-27 13:08 55.06128 83.72592 7195 ft 230 kts 264°
2026-04-27 13:08 55.05953 83.69823 7196 ft 228 kts 264°
2026-04-27 13:08 55.05779 83.67065 7197 ft 229 kts 264°
2026-04-27 13:09 55.05604 83.64303 7194 ft 229 kts 264°
2026-04-27 13:09 55.05428 83.61541 7192 ft 229 kts 264°
2026-04-27 13:09 55.05250 83.58772 7200 ft 229 kts 264°
2026-04-27 13:09 55.05072 83.56000 7195 ft 229 kts 264°
2026-04-27 13:10 55.04894 83.53243 7198 ft 229 kts 264°
2026-04-27 13:10 55.04714 83.50478 7200 ft 229 kts 264°
2026-04-27 13:10 55.04534 83.47715 7195 ft 229 kts 264°
2026-04-27 13:10 55.04356 83.44996 7204 ft 228 kts 264°
2026-04-27 13:11 55.04176 83.42232 7196 ft 230 kts 264°
2026-04-27 13:11 55.03965 83.39476 7195 ft 229 kts 256°
2026-04-27 13:11 55.03175 83.37083 7185 ft 232 kts 225°
2026-04-27 13:11 55.01891 83.35366 6999 ft 233 kts 218°
2026-04-27 13:12 55.00568 83.33722 6672 ft 234 kts 218°
2026-04-27 13:12 54.99239 83.32084 6367 ft 233 kts 218°
2026-04-27 13:12 54.97913 83.30458 6062 ft 232 kts 218°
2026-04-27 13:12 54.96594 83.28843 5751 ft 231 kts 218°
2026-04-27 13:13 54.95285 83.27221 5443 ft 230 kts 221°
2026-04-27 13:13 54.94351 83.25056 5128 ft 223 kts 253°
2026-04-27 13:13 54.94136 83.22431 5016 ft 222 kts 268°
2026-04-27 13:13 54.94050 83.19764 4991 ft 223 kts 268°
2026-04-27 13:14 54.93964 83.17083 4985 ft 222 kts 268°
2026-04-27 13:14 54.93879 83.14389 4987 ft 223 kts 268°
2026-04-27 13:14 54.93795 83.11701 4984 ft 221 kts 268°
2026-04-27 13:14 54.93711 83.09024 4995 ft 223 kts 268°
2026-04-27 13:15 54.93628 83.06328 4989 ft 223 kts 268°
2026-04-27 13:15 54.93546 83.03645 4991 ft 222 kts 268°
2026-04-27 13:15 54.93461 83.00947 4990 ft 223 kts 268°
2026-04-27 13:15 54.93379 82.98251 4990 ft 223 kts 268°
2026-04-27 13:16 54.93297 82.95552 4992 ft 223 kts 268°
2026-04-27 13:16 54.93217 82.92890 4991 ft 223 kts 268°
2026-04-27 13:16 54.93135 82.90210 4995 ft 222 kts 268°
2026-04-27 13:16 54.93057 82.87521 4993 ft 223 kts 268°
2026-04-27 13:17 54.92978 82.84872 4992 ft 213 kts 268°
2026-04-27 13:17 54.92673 82.82350 5006 ft 225 kts 244°
2026-04-27 13:17 54.91600 82.80348 4996 ft 231 kts 212°
2026-04-27 13:17 54.90041 82.79633 4997 ft 238 kts 180°
2026-04-27 13:18 54.88448 82.80452 4996 ft 243 kts 148°
2026-04-27 13:18 54.87305 82.82601 4992 ft 246 kts 116°
2026-04-27 13:18 54.86949 82.85465 4990 ft 245 kts 84°
2026-04-27 13:18 54.87471 82.88189 4997 ft 241 kts 52°
2026-04-27 13:19 54.88495 82.90476 4995 ft 240 kts 48°
2026-04-27 13:19 54.89552 82.92735 4992 ft 240 kts 48°
2026-04-27 13:19 54.90604 82.94980 4996 ft 239 kts 48°
2026-04-27 13:19 54.91658 82.97226 4993 ft 240 kts 48°
2026-04-27 13:20 54.92714 82.99480 4991 ft 240 kts 48°
2026-04-27 13:20 54.93768 83.01729 4993 ft 239 kts 48°
2026-04-27 13:20 54.94819 83.03973 4993 ft 239 kts 48°
2026-04-27 13:20 54.95858 83.06199 4995 ft 240 kts 48°
2026-04-27 13:21 54.96912 83.08450 4990 ft 240 kts 48°
2026-04-27 13:21 54.97971 83.10707 4989 ft 240 kts 48°
2026-04-27 13:21 54.99024 83.12957 4988 ft 241 kts 48°
2026-04-27 13:21 55.00083 83.15220 4994 ft 241 kts 48°
2026-04-27 13:22 55.01313 83.17084 4851 ft 232 kts 22°
2026-04-27 13:22 55.02863 83.17596 4519 ft 226 kts 351°
2026-04-27 13:22 55.04375 83.16977 4222 ft 222 kts 330°
2026-04-27 13:22 55.05472 83.15189 3913 ft 217 kts 297°
2026-04-27 13:23 55.05798 83.12656 3591 ft 219 kts 265°
2026-04-27 13:23 55.05551 83.10034 3333 ft 218 kts 261°
2026-04-27 13:23 55.05275 83.07426 3068 ft 218 kts 261°
2026-04-27 13:23 55.05007 83.04890 2983 ft 207 kts 261°
2026-04-27 13:24 55.04759 83.02491 2889 ft 195 kts 261°
2026-04-27 13:24 55.04525 83.00180 2673 ft 194 kts 262°
2026-04-27 13:24 55.04289 82.97814 2231 ft 203 kts 262°
2026-04-27 13:24 55.04050 82.95422 2022 ft 196 kts 262°
2026-04-27 13:25 55.03822 82.93157 1995 ft 182 kts 262°
2026-04-27 13:25 55.03610 82.91094 1989 ft 163 kts 263°
2026-04-27 13:25 55.03420 82.89244 1996 ft 151 kts 263°
2026-04-27 13:25 55.03239 82.87406 1995 ft 154 kts 262°
2026-04-27 13:26 55.02938 82.85638 1993 ft 158 kts 237°
2026-04-27 13:26 55.01958 82.84431 2002 ft 184 kts 202°
2026-04-27 13:26 55.00680 82.84474 1997 ft 192 kts 161°
2026-04-27 13:26 54.99668 82.85950 1998 ft 197 kts 121°
2026-04-27 13:27 54.99384 82.88243 2000 ft 197 kts 79°
2026-04-27 13:27 54.99866 82.90413 1998 ft 193 kts 59°
2026-04-27 13:27 55.00492 82.92462 1996 ft 192 kts 58°
2026-04-27 13:27 55.01123 82.94510 1991 ft 192 kts 58°
2026-04-27 13:28 55.01760 82.96536 1995 ft 189 kts 54°
2026-04-27 13:28 55.02727 82.97946 1996 ft 183 kts 14°
2026-04-27 13:28 55.03942 82.97913 1989 ft 174 kts 334°
2026-04-27 13:28 55.04782 82.96492 1992 ft 172 kts 292°
2026-04-27 13:29 55.04832 82.94438 2001 ft 174 kts 255°
2026-04-27 13:29 55.04349 82.92489 1994 ft 176 kts 246°
2026-04-27 13:29 55.03841 82.90550 1994 ft 174 kts 251°
2026-04-27 13:29 55.03454 82.88550 1995 ft 174 kts 256°
2026-04-27 13:30 55.03175 82.86496 1995 ft 174 kts 260°
2026-04-27 13:30 55.02960 82.84433 1998 ft 172 kts 262°
2026-04-27 13:30 55.02785 82.82364 1995 ft 173 kts 264°
2026-04-27 13:30 55.02624 82.80360 2000 ft 162 kts 264°
2026-04-27 13:31 55.02463 82.78436 1865 ft 160 kts 263°
2026-04-27 13:31 55.02288 82.76513 1509 ft 162 kts 263°
2026-04-27 13:31 55.02172 82.75235 1306 ft 159 kts 263°
2026-04-27 13:31 55.01954 82.72850 998 ft 141 kts 263°
2026-04-27 13:32 55.01806 82.71230 799 ft 131 kts 263°
2026-04-27 13:32 55.01666 82.69685 636 ft 134 kts 264°
2026-04-27 13:32 55.01520 82.68088 448 ft 132 kts 263°
2026-04-27 13:32 55.01386 82.66596 374 ft 104 kts 260°
2026-04-27 13:33 55.01296 82.65636 372 ft 59 kts 261°
2026-04-27 13:33 55.01251 82.65155 373 ft 23 kts 256°
2026-04-27 13:33 55.01207 82.65068 372 ft 12 kts 196°
2026-04-27 13:33 55.01132 82.65072 372 ft 6 kts 170°
2026-04-27 13:34 55.01102 82.65080 372 ft 0 kts 171°
2026-04-27 13:34 55.01095 82.65082 372 ft 4 kts 172°
2026-04-27 13:34 55.01051 82.65093 373 ft 9 kts 172°
2026-04-27 13:35 55.00975 82.65115 373 ft 13 kts 171°
2026-04-27 13:35 55.00890 82.65183 373 ft 12 kts 114°
2026-04-27 13:35 55.00888 82.65313 373 ft 13 kts 84°
2026-04-27 13:35 55.00903 82.65493 373 ft 17 kts 81°
2026-04-27 13:36 55.00922 82.65688 373 ft 15 kts 80°
2026-04-27 13:36 55.00940 82.65879 373 ft 16 kts 81°
2026-04-27 13:36 55.00953 82.66036 373 ft 13 kts 82°
2026-04-27 13:36 55.00966 82.66194 373 ft 10 kts 81°
2026-04-27 13:37 55.00999 82.66307 373 ft 13 kts 50°
2026-04-27 13:37 55.01030 82.66419 373 ft 8 kts 71°
2026-04-27 13:37 55.01052 82.66536 373 ft 10 kts 90°
2026-04-27 13:37 55.01025 82.66585 373 ft 5 kts 166°
2026-04-27 13:38 55.01018 82.66585 373 ft 0 kts 176°